Regional Weather Roundup
Issued by NWS

Home | Current Version | Previous Version | Graphics & Text | Print | Product List | Glossary On
Versions: 1 2 3 4 5 6 7 8 9 10 11 12 13 14 15 16 17 18 19 20 21 22 23 24 25 26 27 28 29 30 31 32 33 34 35 36 37 38 39 40 41 42 43 44 45 46 47 48 49 50
000
ASUS43 KLMK 291610
RWRKY
KENTUCKY REGIONAL WEATHER ROUNDUP
NATIONAL WEATHER SERVICE LOUISVILLE KY
1100 AM EST THU JAN 29 2015

NOTE "FAIR" INDICATES FEW OR NO CLOUDS BELOW 12,000 FEET
WITH NO SIGNIFICANT WEATHER AND/OR OBSTRUCTIONS TO VISIBILITY.

KYZ001>023-026-027-061>063-070>075-291700-
WESTERN AND SOUTH CENTRAL KENTUCKY

CITY           SKY/WX    TMP DP  RH WIND       PRES   REMARKS
PADUCAH        MOSUNNY   54  41  61 NW18      30.04R
HENDERSON      CLOUDY    48  36  61 NW21G26   30.01R
OWENSBORO      CLOUDY    54  42  63 W21G28    29.98R
HOPKINSVILLE   SUNNY     60  41  50 SW23G29   30.00R
BOWLING GREEN  SUNNY     57  37  47 SW21G30   29.99R
GLASGOW        SUNNY     55  36  48 SW20G29   30.00R
$$

KYZ024-025-028>034-038-045-046-053-291700-
NORTH CENTRAL KENTUCKY

CITY           SKY/WX    TMP DP  RH WIND       PRES   REMARKS
LOUISVILLE/SDF CLOUDY    54  37  52 SW20G36   29.90S
LOUISVILLE/LOU CLOUDY    53  37  54 SW12G22   29.90F
FORT KNOX      CLOUDY    53  38  58 S18G28    29.91S
$$

KYZ035>037-039>044-047>052-055>060-089>105-291700-
NORTHEAST KENTUCKY

CITY           SKY/WX    TMP DP  RH WIND       PRES   REMARKS
LEXINGTON      MOSUNNY   50  37  61 S18G25    29.93S
COVINGTON      PTSUNNY   48  35  60 SW18G28   29.84F
FRANKFORT      CLOUDY    49  35  58 SW18G28   29.90F
$$

KYZ054-064>069-076>088-106>120-291700-
SOUTHEAST KENTUCKY

CITY           SKY/WX    TMP DP  RH WIND       PRES   REMARKS
JACKSON        CLOUDY    41  33  73 VRB7      29.99S
LONDON         CLOUDY    44  35  70 S10       30.02F
SOMERSET       MOSUNNY   45  32  61 S14G21    30.03F
MIDDLESBORO    RAIN      40  29  65 SW10G23   30.12F WCI  34
MONTICELLO     MOSUNNY   54  38  54 S17G26    30.05F
$$



USA.gov is the U.S. government's official web portal to all federal, state and local government web resources and services.